GEFSMW_con_probscp_300.txt.gz
Probability
3 5 7 6 4 1 0 0 0 0 0 1 1 1 1 0 0 0 0 1 1 1 2 3 4 4 3 2 2 2 2 1 0 0 0 1 2 2 2 1 0 1 3
3 5 7 6 4 3 2 1 1 1 1 2 3 2 2 1 1 0 0 1 2 2 3 4 5 4 4 3 3 4 3 2 2 1 1 1 1 2 1 0 0 1 2
3 5 6 6 6 6 6 5 4 3 3 4 4 4 3 2 1 0 0 1 3 4 3 4 5 6 6 6 6 6 5 5 4 4 3 2 2 2 2 1 0 1 1
2 4 6 7 8 9 9 8 6 4 4 4 5 4 3 2 1 0 0 1 3 4 4 5 6 6 6 7 7 7 6 6 6 5 4 4 4 3 3 2 1 1 0
2 3 5 6 8 9 9 9 7 5 5 6 7 6 4 2 1 1 1 1 3 5 6 7 7 7 6 7 8 8 8 7 7 7 6 6 6 5 5 4 3 3 2
3 3 4 4 5 6 7 7 7 6 7 9 11 10 6 4 3 3 3 3 4 5 6 7 8 7 6 7 8 9 10 10 9 9 9 9 9 8 8 7 6 5 4
4 4 3 3 3 5 7 7 7 8 9 11 13 12 9 5 3 4 4 5 5 6 6 7 7 7 6 7 8 9 11 12 10 10 10 10 10 10 9 9 8 6 5
4 4 4 3 4 6 9 10 10 10 10 11 12 12 10 6 4 3 4 4 4 4 5 5 6 6 7 7 8 10 11 11 10 10 10 10 10 10 9 9 9 7 5
4 4 3 3 3 6 10 13 12 12 11 12 12 11 10 8 5 3 3 3 3 3 3 3 3 5 7 9 10 10 10 10 10 10 10 10 10 9 9 8 8 8 6
4 3 2 3 3 5 9 12 13 12 12 12 13 12 11 9 7 4 3 3 3 3 2 1 1 3 6 9 11 11 10 10 10 10 10 9 9 8 7 7 7 7 6
3 2 1 2 3 5 7 10 12 12 13 14 15 14 13 12 10 7 6 4 4 3 2 1 1 2 4 6 9 10 10 10 10 10 9 9 8 7 7 6 6 6 6
3 2 2 4 6 8 10 10 12 14 15 16 18 16 14 13 12 10 8 7 5 4 2 1 1 2 2 4 6 7 8 8 8 8 7 7 6 6 6 6 5 5 4
5 5 5 7 8 11 13 12 13 16 17 17 18 17 15 13 12 11 10 8 6 3 2 2 2 2 2 3 4 5 5 5 5 5 4 4 5 4 4 5 5 4 4
7 9 9 8 8 10 12 13 14 15 15 14 15 15 15 15 14 13 11 8 6 4 4 4 4 3 2 2 3 3 2 2 2 2 2 2 2 2 2 4 4 4 4
9 10 10 9 9 10 11 11 11 12 12 12 14 16 17 16 15 14 11 8 6 6 6 6 6 5 3 2 3 2 1 1 1 1 1 1 1 1 1 2 2 2 2
9 10 10 9 10 12 11 9 8 10 12 14 16 18 17 15 13 11 10 9 7 7 6 6 6 5 3 2 1 2 2 2 1 0 0 0 0 1 1 1 1 1 1
8 8 8 8 10 12 10 8 8 12 16 17 18 18 15 13 11 11 11 11 9 7 6 4 4 4 3 1 0 1 3 3 2 0 0 0 0 1 2 1 0 0 0
9 8 7 8 9 10 9 10 13 17 21 21 18 14 12 11 12 13 14 14 12 9 5 4 3 3 2 1 0 1 2 2 1 0 0 0 0 1 3 2 1 0 0
12 11 10 10 9 9 10 13 16 20 22 21 18 14 11 12 14 15 16 17 15 11 7 4 3 3 2 1 0 0 1 1 0 0 0 0 0 0 1 2 1 0 0
15 14 14 13 11 10 11 14 15 17 17 17 17 15 14 14 16 17 18 19 18 14 8 5 4 3 2 1 0 0 1 1 1 0 0 0 0 0 0 0 0 0 0
14 14 14 14 11 9 10 12 12 11 11 13 15 16 17 17 18 18 19 19 19 15 9 7 6 5 3 1 0 1 2 3 2 1 0 0 0 0 0 0 0 0 0
11 11 12 13 12 10 9 9 10 10 10 10 12 14 17 18 18 19 18 19 19 16 12 9 9 8 6 4 1 1 2 3 3 2 0 0 0 0 0 0 0 0 0
9 9 10 13 13 11 9 8 8 9 9 8 9 11 15 17 19 18 18 18 18 16 13 12 11 10 9 6 3 1 1 1 1 1 0 0 0 0 0 0 0 0 0
9 8 8 11 12 10 8 7 7 7 7 7 7 9 12 16 18 18 17 17 16 14 13 13 12 12 11 8 5 2 1 0 0 0 0 0 0 0 0 0 0 0 0
9 7 6 7 8 8 7 6 6 6 6 6 7 8 10 13 16 17 16 15 14 13 12 12 13 13 12 9 6 4 2 1 0 0 0 1 1 1 1 1 0 0 0
9 7 5 5 6 7 7 6 6 6 6 6 7 8 10 11 14 16 14 13 13 11 10 11 12 13 12 9 6 4 3 1 0 0 1 2 2 2 2 2 1 0 0

GEFSMW_con_probscp_306.txt.gz
Probability
6 6 6 8 11 12 12 9 6 6 7 8 7 6 6 5 4 3 3 3 4 6 9 9 9 10 10 10 10 10 10 10 10 11 11 10 10 10 10 10 9 8 6
6 6 7 8 10 12 12 10 8 7 7 8 7 7 6 5 4 4 4 4 5 6 7 9 9 9 10 10 10 10 10 10 10 10 10 10 9 9 9 9 9 8 7
5 6 7 9 10 10 10 10 10 9 9 9 9 8 7 6 5 5 6 6 6 6 7 7 9 10 10 11 11 12 11 11 10 10 10 9 8 8 8 9 9 9 8
5 6 7 8 8 8 9 9 10 11 11 11 10 9 9 8 8 8 7 6 6 6 6 6 8 11 13 13 13 13 14 12 10 10 10 10 10 8 8 9 10 10 9
6 6 7 8 8 9 9 10 11 12 12 11 10 10 10 9 10 9 7 6 6 6 5 6 9 13 15 15 14 15 15 13 11 10 11 12 12 10 9 9 10 11 11
5 6 7 9 10 11 12 12 12 13 13 12 11 12 12 12 10 9 7 6 6 6 6 7 11 14 16 16 16 15 14 13 12 13 13 13 13 12 11 10 10 11 12
4 4 7 9 10 12 14 14 16 17 16 14 14 15 16 15 12 9 7 6 7 7 8 11 14 15 15 16 17 16 15 15 14 14 14 14 13 13 12 11 10 10 11
3 5 9 10 10 11 14 16 20 21 19 16 16 19 20 19 17 14 10 9 9 11 12 13 15 16 17 17 17 17 17 16 15 14 15 16 14 14 12 11 10 10 11
4 6 10 12 9 9 11 14 20 22 20 18 18 21 24 25 24 22 18 15 14 15 16 16 16 17 18 18 17 17 16 15 13 13 15 15 14 13 11 10 10 10 11
4 6 9 11 9 6 7 10 15 20 20 19 19 20 24 27 28 27 25 21 19 21 21 20 19 20 20 18 16 15 14 12 11 12 13 12 12 12 11 11 11 11 11
4 5 7 10 9 6 5 7 11 16 19 19 18 19 22 26 26 26 25 22 23 25 27 25 23 23 23 21 17 15 12 10 9 10 10 9 9 10 12 13 15 14 12
4 5 7 10 11 9 7 9 11 15 19 21 19 18 21 25 27 26 24 24 25 29 30 28 26 26 26 25 22 19 14 10 9 8 7 6 7 8 10 13 15 15 13
4 5 8 12 15 14 14 14 15 17 20 24 23 20 22 26 28 28 28 28 29 30 30 29 27 25 24 23 23 21 15 10 7 5 5 5 6 7 9 11 13 12 10
5 6 9 13 16 18 19 20 21 21 22 24 24 23 25 28 30 30 30 31 31 30 29 27 24 21 18 17 18 18 15 10 6 5 4 6 6 6 7 8 8 8 7
5 6 9 13 16 19 21 22 24 25 25 25 26 27 30 32 31 29 28 29 29 27 25 23 20 17 13 12 12 14 15 12 8 7 6 6 5 4 3 3 4 5 5
6 7 10 13 15 20 22 23 27 29 30 31 31 32 33 33 30 27 25 25 24 21 19 18 17 16 13 10 8 11 14 13 11 9 8 6 5 3 1 0 1 1 2
8 8 11 15 17 20 24 27 31 34 35 34 33 33 33 31 29 25 23 21 18 16 16 16 16 16 13 9 5 7 10 12 11 11 10 8 6 5 3 2 1 1 1
11 12 15 19 20 22 25 29 33 35 34 31 29 29 29 29 27 25 22 19 17 15 14 14 14 16 14 8 4 4 8 11 11 11 11 10 8 5 5 5 4 3 3
16 18 20 22 24 25 26 28 30 31 29 26 25 26 27 27 26 24 21 20 19 18 16 15 16 17 15 9 4 4 8 11 12 11 10 9 7 4 4 5 5 5 6
21 21 23 25 26 26 27 27 26 26 25 24 24 25 26 26 26 24 21 20 22 21 20 19 20 21 18 11 5 4 8 11 12 11 9 6 4 2 2 3 5 6 6
22 22 24 27 27 28 29 27 25 24 24 23 23 23 24 25 25 23 20 19 21 22 21 21 23 23 19 13 6 4 7 10 11 11 10 6 3 1 1 3 5 5 5
21 22 25 28 27 28 29 28 26 25 24 23 23 24 24 23 22 21 19 18 19 20 19 19 21 21 18 13 7 3 4 7 11 13 12 9 4 1 0 2 3 3 2
22 23 25 27 27 25 25 26 25 24 24 23 23 23 22 20 20 20 19 17 17 17 17 17 19 19 16 13 10 5 3 4 9 12 11 8 3 1 1 1 1 1 2
21 22 23 25 25 22 20 21 21 22 23 22 20 20 19 19 19 20 18 17 16 16 16 18 18 17 17 16 14 11 7 6 8 11 10 7 5 4 5 5 4 4 4
19 18 19 21 21 19 16 15 16 18 20 19 17 18 18 18 18 18 17 15 14 13 13 14 15 15 14 15 15 13 11 10 10 10 11 10 10 10 11 11 10 9 7
15 15 16 16 17 16 14 12 12 15 18 17 16 16 17 18 17 16 15 14 12 10 9 9 10 11 11 11 12 12 11 10 10 10 11 11 12 13 13 14 13 11 8

GEFSMW_con_probscp_312.txt.gz
Probability
14 15 14 13 17 22 27 28 25 22 19 14 11 12 11 10 11 11 11 10 9 9 9 7 7 6 7 10 11 11 10 8 7 7 6 6 5 6 9 10 11 11 12
17 17 15 13 16 20 24 27 26 23 20 17 14 13 13 13 13 12 11 11 11 11 8 7 6 6 8 11 12 11 10 9 9 8 7 5 5 5 7 10 12 12 14
19 19 16 13 14 18 22 25 28 26 23 20 17 14 14 14 13 11 10 11 13 13 10 9 9 8 9 11 12 11 11 11 10 10 9 8 8 6 7 10 11 13 14
20 19 17 14 15 18 22 28 32 31 26 22 18 15 14 13 12 10 11 13 15 16 14 14 15 15 13 12 12 12 12 13 13 13 14 14 12 10 9 9 9 11 12
20 21 20 17 17 19 25 32 36 34 30 24 19 17 16 15 14 13 14 18 20 18 17 18 21 22 20 17 17 17 17 16 15 15 15 16 14 11 9 8 8 8 9
22 23 24 22 20 22 27 34 38 37 33 26 21 19 19 19 19 19 21 24 25 22 19 20 24 27 27 25 24 24 22 19 17 15 14 13 11 9 9 8 6 6 6
20 22 25 25 24 25 30 37 41 41 37 30 25 23 23 23 23 24 25 26 26 25 23 23 27 30 31 30 29 27 25 21 19 15 12 11 9 8 9 9 7 5 4
14 17 20 23 24 27 32 39 44 44 40 34 31 31 30 27 26 26 25 24 25 25 27 28 29 30 31 31 30 28 25 24 22 16 12 10 10 10 10 10 8 6 5
9 12 15 19 22 25 31 38 43 45 43 39 38 38 37 34 31 29 25 25 25 27 30 31 31 30 29 28 28 27 24 23 22 17 13 12 12 11 10 10 9 8 7
6 9 13 17 21 25 29 35 40 44 44 42 41 40 41 40 37 33 30 31 33 33 34 34 32 31 28 26 26 25 24 21 20 19 15 13 12 10 9 9 9 8 6
6 8 12 16 21 24 27 32 37 41 42 42 41 41 44 45 42 38 37 39 40 40 39 38 36 32 28 26 25 25 24 24 23 22 20 16 11 8 9 9 9 7 6
12 12 14 18 22 25 27 29 34 38 40 40 42 44 46 46 45 42 42 42 43 43 42 41 38 34 30 27 26 24 25 25 24 24 23 19 14 10 10 10 9 8 7
22 19 20 25 28 29 30 30 32 35 38 38 40 44 46 46 44 43 43 43 44 44 44 43 39 35 32 29 26 23 22 22 21 21 21 20 17 14 12 11 10 9 8
27 26 28 33 36 36 36 34 32 33 36 37 38 43 46 44 42 43 43 43 42 41 41 41 37 34 30 26 24 23 21 19 17 17 19 19 17 13 11 10 10 9 9
28 31 32 35 39 41 42 40 36 35 36 38 39 42 42 40 40 42 42 41 39 36 37 37 33 29 23 19 19 21 20 18 16 16 17 15 12 9 7 7 7 7 7
32 35 38 40 42 44 46 45 42 39 38 40 40 39 39 39 38 38 37 37 36 34 33 33 29 25 19 15 14 16 19 20 19 19 18 14 9 6 5 4 3 3 4
37 39 45 47 47 47 49 49 47 44 42 41 39 37 37 38 37 35 33 33 33 32 31 29 27 25 20 14 10 10 16 20 21 22 21 18 14 10 7 5 3 3 3
41 44 48 50 48 46 47 49 46 44 42 40 38 37 36 35 35 35 34 34 34 32 29 27 26 24 20 13 7 6 11 19 23 25 25 24 21 16 12 9 7 6 5
42 44 46 45 45 43 44 44 42 38 36 36 36 35 34 33 33 35 35 35 35 33 29 25 23 22 19 13 6 5 10 18 24 27 27 25 22 17 13 12 12 9 7
42 42 40 38 40 43 43 41 38 35 34 33 33 32 32 32 33 33 33 32 31 30 26 22 21 22 20 13 5 4 10 17 23 27 26 22 17 11 9 12 13 12 9
42 41 38 35 38 43 43 40 38 36 36 33 31 30 30 29 29 29 28 27 26 25 22 20 21 23 21 13 4 3 8 13 18 23 22 17 9 4 4 8 12 12 10
42 41 40 38 39 41 40 37 36 35 36 33 30 29 28 26 24 25 25 25 24 22 20 20 22 23 21 14 5 2 3 7 13 18 17 11 4 1 1 4 7 8 8
42 41 40 39 38 36 32 29 30 32 33 32 30 29 27 24 22 22 23 23 22 20 19 19 20 21 19 16 9 3 1 3 8 12 11 5 1 0 0 1 3 5 6
41 40 38 36 33 28 23 21 25 28 31 31 31 29 26 24 24 23 22 21 20 19 18 18 18 18 17 14 11 7 4 3 5 7 6 3 1 1 2 3 3 5 6
38 37 36 33 28 23 18 17 21 25 28 29 29 28 25 24 24 22 19 17 16 16 17 16 16 15 14 11 9 8 7 6 6 6 7 5 4 4 5 7 8 9 9
36 35 33 30 25 20 17 16 19 24 27 26 26 25 24 24 23 19 15 13 14 14 15 15 15 15 12 9 7 7 7 6 6 7 8 8 6 6 7 10 11 12 12

GEFSMW_con_probscp_318.txt.gz
Probability
14 11 7 6 6 6 4 4 4 4 5 7 7 7 7 9 7 4 2 3 4 2 1 1 1 0 0 0 1 2 3 3 3 3 3 3 3 4 4 4 2 2 2
14 12 10 11 10 8 7 6 5 5 5 7 8 7 7 7 6 4 3 3 4 4 3 3 2 1 0 0 1 2 3 3 3 3 2 3 3 4 4 4 4 3 3
14 13 13 16 16 14 12 11 8 7 8 10 9 7 6 7 6 5 3 2 2 4 5 4 3 2 1 1 1 3 3 3 3 3 3 3 3 3 4 4 4 4 4
15 15 15 17 19 18 17 15 13 12 13 14 11 8 7 7 7 7 5 3 3 4 5 4 3 3 3 3 3 3 3 3 3 3 3 3 3 3 3 3 4 3 3
19 19 19 19 19 19 18 17 15 15 16 17 14 11 8 7 7 7 7 6 6 7 6 5 4 4 4 5 5 4 4 4 3 3 4 4 4 4 4 3 3 3 3
21 23 22 20 19 19 17 16 16 17 18 18 16 13 10 7 6 6 6 8 9 9 8 6 6 6 7 7 6 6 6 5 5 5 5 6 6 6 5 4 3 3 3
20 22 21 19 19 18 16 14 16 19 20 19 16 13 11 8 7 6 7 9 12 12 10 9 9 9 10 10 9 8 7 8 8 7 7 6 6 6 6 4 3 3 3
19 19 18 17 18 18 16 15 17 21 21 18 15 13 12 11 11 10 10 11 13 14 13 11 11 11 12 14 13 11 10 11 10 8 6 6 5 5 6 5 4 3 2
17 16 16 17 19 19 16 15 17 20 20 18 17 15 15 15 15 14 13 12 12 12 13 13 12 12 14 16 17 15 14 13 11 8 6 5 3 4 4 4 3 3 3
16 15 17 19 22 22 18 16 17 20 21 20 20 19 17 15 14 13 12 12 11 11 12 13 12 12 14 17 18 17 16 15 12 8 6 4 3 4 4 4 3 3 3
17 18 20 21 22 24 23 21 21 22 22 21 21 21 18 14 13 12 11 11 12 12 12 12 11 12 14 17 18 18 17 15 11 8 6 4 5 6 5 4 3 3 3
20 23 26 25 23 24 26 26 25 24 23 21 21 22 21 18 15 13 12 12 13 12 10 9 10 12 14 16 18 17 16 14 11 8 7 6 6 7 7 5 4 3 3
23 26 29 28 26 25 25 25 23 21 20 21 22 22 22 22 20 17 15 15 14 12 10 8 8 10 13 16 17 16 15 13 10 8 8 8 7 7 8 7 5 4 4
25 27 28 28 26 24 23 22 19 15 15 18 20 20 20 22 22 20 18 18 17 14 11 9 8 9 11 13 14 13 12 11 9 8 8 7 6 6 8 8 6 5 4
25 28 30 26 23 21 20 20 18 14 13 15 17 18 18 19 20 20 20 20 20 18 15 12 11 9 8 9 9 9 9 10 10 8 6 6 5 4 5 6 5 4 4
23 28 31 27 21 19 18 18 18 17 15 15 17 18 19 18 17 18 20 22 23 21 17 13 11 9 7 7 7 7 8 11 11 8 5 5 5 4 3 3 3 3 2
23 26 29 27 22 19 18 18 18 19 20 19 18 18 20 20 18 18 19 21 22 19 15 12 10 9 7 6 5 5 6 9 9 7 4 4 4 4 2 1 1 1 1
25 24 24 22 20 19 19 18 19 21 22 21 18 17 20 21 20 18 18 19 17 14 12 11 10 9 7 5 3 2 3 6 6 5 4 3 3 3 1 0 0 0 1
25 23 20 18 17 17 17 17 17 19 21 20 18 17 19 22 22 19 18 17 14 12 13 12 11 10 7 4 2 1 1 3 3 3 2 2 2 2 1 0 0 0 1
22 21 20 18 14 13 14 15 14 15 17 18 17 17 19 21 22 19 17 16 15 14 14 15 13 11 8 5 2 0 0 1 1 1 1 1 1 1 0 0 0 0 0
21 22 21 18 13 11 12 13 12 12 12 14 17 18 19 21 20 17 15 15 15 16 16 17 16 14 11 7 2 0 0 0 0 0 0 0 0 0 0 0 0 0 0
23 24 22 18 13 11 11 11 11 9 9 11 15 17 19 19 18 16 14 15 16 17 18 18 18 17 14 9 4 1 0 0 0 1 1 0 0 0 0 0 0 0 0
22 22 20 17 13 11 10 9 8 8 8 9 12 15 16 16 16 15 15 16 18 19 20 19 19 19 15 11 5 1 0 0 0 1 1 0 0 0 0 0 0 0 0
19 17 15 14 13 12 11 10 8 8 8 8 10 13 14 13 12 13 15 16 18 20 21 20 18 16 14 12 8 4 1 0 0 1 1 0 0 0 0 0 0 0 0
15 14 12 11 12 13 12 11 10 9 9 9 10 12 12 9 8 10 12 14 16 17 18 17 16 14 13 12 9 6 4 2 0 0 0 0 0 0 0 0 0 0 0
14 13 11 10 12 13 13 12 11 11 11 10 11 12 11 7 6 8 9 10 12 14 15 15 15 13 12 11 9 7 6 4 1 0 0 0 0 0 0 0 0 0 0